Year,Month,Day,Hour,Minute,Value (Times are PST for temperature in C)
2003,09,03,00,00,18.60
2003,09,03,00,01,18.60
2003,09,03,00,02,18.50
2003,09,03,00,03,18.50
2003,09,03,00,04,18.50
2003,09,03,00,05,18.60
2003,09,03,00,06,18.60
2003,09,03,00,07,18.60
2003,09,03,00,08,18.60
2003,09,03,00,09,18.50
2003,09,03,00,10,18.50
2003,09,03,00,11,18.40
2003,09,03,00,12,18.40
2003,09,03,00,13,18.30
2003,09,03,00,14,18.30
2003,09,03,00,15,18.20
2003,09,03,00,16,18.30
2003,09,03,00,17,18.20
2003,09,03,00,18,18.20
2003,09,03,00,19,18.20
2003,09,03,00,20,18.20
2003,09,03,00,21,18.20
2003,09,03,00,22,18.30
2003,09,03,00,23,18.30
2003,09,03,00,24,18.40
2003,09,03,00,25,18.40
2003,09,03,00,26,18.40
2003,09,03,00,27,18.40
2003,09,03,00,28,18.40
2003,09,03,00,29,18.40
2003,09,03,00,30,18.40
2003,09,03,00,31,18.40
2003,09,03,00,32,18.30
2003,09,03,00,33,18.30
2003,09,03,00,34,18.30
2003,09,03,00,35,18.20
2003,09,03,00,36,18.20
2003,09,03,00,37,18.20
2003,09,03,00,38,18.20
2003,09,03,00,39,18.20
2003,09,03,00,40,18.40
2003,09,03,00,41,18.50
2003,09,03,00,42,18.50
2003,09,03,00,43,18.40
2003,09,03,00,44,18.40
2003,09,03,00,45,18.30
2003,09,03,00,46,18.30
2003,09,03,00,47,18.40
2003,09,03,00,48,18.50
2003,09,03,00,49,18.60
2003,09,03,00,50,18.60
2003,09,03,00,51,18.70
2003,09,03,00,52,18.70
2003,09,03,00,53,18.80
2003,09,03,00,54,18.80
2003,09,03,00,55,18.80
2003,09,03,00,56,18.90
2003,09,03,00,57,18.90
2003,09,03,00,58,18.90
2003,09,03,00,59,18.90
2003,09,03,01,00,18.90
2003,09,03,01,01,18.90
2003,09,03,01,02,18.90
2003,09,03,01,03,18.80
2003,09,03,01,04,18.80
2003,09,03,01,05,18.70
2003,09,03,01,06,18.80
2003,09,03,01,07,18.80
2003,09,03,01,08,18.80
2003,09,03,01,09,18.80
2003,09,03,01,10,18.60
2003,09,03,01,11,18.50
2003,09,03,01,12,18.40
2003,09,03,01,13,18.40
2003,09,03,01,14,18.40
2003,09,03,01,15,18.30
2003,09,03,01,16,18.20
2003,09,03,01,17,18.10
2003,09,03,01,18,18.00
2003,09,03,01,19,17.90
2003,09,03,01,20,17.90
2003,09,03,01,21,17.90
2003,09,03,01,22,17.90
2003,09,03,01,23,18.00
2003,09,03,01,24,18.10
2003,09,03,01,25,18.10
2003,09,03,01,26,18.10
2003,09,03,01,27,18.00
2003,09,03,01,28,18.00
2003,09,03,01,29,17.90
2003,09,03,01,30,17.90
2003,09,03,01,31,17.90
2003,09,03,01,32,18.00
2003,09,03,01,33,18.20
2003,09,03,01,34,18.20
2003,09,03,01,35,18.20
2003,09,03,01,36,18.10
2003,09,03,01,37,18.00
2003,09,03,01,38,17.90
2003,09,03,01,39,18.00
2003,09,03,01,40,18.10
2003,09,03,01,41,18.10
2003,09,03,01,42,18.10
2003,09,03,01,43,18.00
2003,09,03,01,44,17.90
2003,09,03,01,45,17.90
2003,09,03,01,46,17.90
2003,09,03,01,47,17.90
2003,09,03,01,48,17.80
2003,09,03,01,49,17.80
2003,09,03,01,50,17.60
2003,09,03,01,51,17.50
2003,09,03,01,52,17.40
2003,09,03,01,53,17.50
2003,09,03,01,54,17.40
2003,09,03,01,55,17.40
2003,09,03,01,56,17.40
2003,09,03,01,57,17.40
2003,09,03,01,58,17.40
2003,09,03,01,59,17.40
2003,09,03,02,00,17.40
2003,09,03,02,01,17.30
2003,09,03,02,02,17.30
2003,09,03,02,03,17.10
2003,09,03,02,04,17.00
2003,09,03,02,05,17.00
2003,09,03,02,06,16.90
2003,09,03,02,07,16.80
2003,09,03,02,08,16.70
2003,09,03,02,09,16.70
2003,09,03,02,10,16.60
2003,09,03,02,11,16.60
2003,09,03,02,12,16.60
2003,09,03,02,13,16.50
2003,09,03,02,14,16.40
2003,09,03,02,15,16.40
2003,09,03,02,16,16.40
2003,09,03,02,17,16.40
2003,09,03,02,18,16.40
2003,09,03,02,19,16.50
2003,09,03,02,20,16.60
2003,09,03,02,21,16.70
2003,09,03,02,22,16.70
2003,09,03,02,23,16.80
2003,09,03,02,24,16.80
2003,09,03,02,25,16.80
2003,09,03,02,26,16.80
2003,09,03,02,27,16.80
2003,09,03,02,28,16.80
2003,09,03,02,29,16.90
2003,09,03,02,30,17.00
2003,09,03,02,31,17.00
2003,09,03,02,32,17.00
2003,09,03,02,33,16.90
2003,09,03,02,34,17.00
2003,09,03,02,35,17.00
2003,09,03,02,36,17.10
2003,09,03,02,37,17.20
2003,09,03,02,38,17.20
2003,09,03,02,39,17.20
2003,09,03,02,40,17.20
2003,09,03,02,41,17.30
2003,09,03,02,42,17.30
2003,09,03,02,43,17.30
2003,09,03,02,44,17.30
2003,09,03,02,45,17.40
2003,09,03,02,46,17.40
2003,09,03,02,47,17.40
2003,09,03,02,48,17.40
2003,09,03,02,49,17.20
2003,09,03,02,50,17.20
2003,09,03,02,51,17.20
2003,09,03,02,52,17.20
2003,09,03,02,53,17.20
2003,09,03,02,54,17.30
2003,09,03,02,55,17.10
2003,09,03,02,56,17.00
2003,09,03,02,57,16.90
2003,09,03,02,58,16.80
2003,09,03,02,59,16.70
2003,09,03,03,00,16.60
2003,09,03,03,01,16.60
2003,09,03,03,02,16.60
2003,09,03,03,03,16.40
2003,09,03,03,04,16.40
2003,09,03,03,05,16.30
2003,09,03,03,06,16.30
2003,09,03,03,07,16.30
2003,09,03,03,08,16.50
2003,09,03,03,09,16.60
2003,09,03,03,10,16.60
2003,09,03,03,11,16.50
2003,09,03,03,12,16.40
2003,09,03,03,13,16.50
2003,09,03,03,14,16.50
2003,09,03,03,15,16.40
2003,09,03,03,16,16.40
2003,09,03,03,17,16.30
2003,09,03,03,18,16.30
2003,09,03,03,19,16.20
2003,09,03,03,20,16.20
2003,09,03,03,21,16.20
2003,09,03,03,22,16.20
2003,09,03,03,23,16.20
2003,09,03,03,24,16.20
2003,09,03,03,25,16.30
2003,09,03,03,26,16.30
2003,09,03,03,27,16.20
2003,09,03,03,28,16.00
2003,09,03,03,29,15.90
2003,09,03,03,30,15.80
2003,09,03,03,31,15.80
2003,09,03,03,32,15.70
2003,09,03,03,33,15.70
2003,09,03,03,34,15.70
2003,09,03,03,35,15.60
2003,09,03,03,36,15.60
2003,09,03,03,37,15.50
2003,09,03,03,38,15.50
2003,09,03,03,39,15.40
2003,09,03,03,40,15.40
2003,09,03,03,41,15.40
2003,09,03,03,42,15.30
2003,09,03,03,43,15.30
2003,09,03,03,44,15.30
2003,09,03,03,45,15.20
2003,09,03,03,46,15.20
2003,09,03,03,47,15.20
2003,09,03,03,48,15.10
2003,09,03,03,49,15.10
2003,09,03,03,50,15.10
2003,09,03,03,51,15.10
2003,09,03,03,52,15.10
2003,09,03,03,53,15.10
2003,09,03,03,54,15.20
2003,09,03,03,55,15.30
2003,09,03,03,56,15.30
2003,09,03,03,57,15.30
2003,09,03,03,58,15.30
2003,09,03,03,59,15.30
2003,09,03,04,00,15.30
2003,09,03,04,01,15.30
2003,09,03,04,02,15.40
2003,09,03,04,03,15.50
2003,09,03,04,04,15.60
2003,09,03,04,05,15.60
2003,09,03,04,06,15.70
2003,09,03,04,07,15.70
2003,09,03,04,08,15.80
2003,09,03,04,09,15.80
2003,09,03,04,10,15.80
2003,09,03,04,11,15.80
2003,09,03,04,12,15.80
2003,09,03,04,13,15.80
2003,09,03,04,14,15.80
2003,09,03,04,15,15.80
2003,09,03,04,16,15.80
2003,09,03,04,17,15.90
2003,09,03,04,18,16.00
2003,09,03,04,19,16.10
2003,09,03,04,20,16.10
2003,09,03,04,21,16.10
2003,09,03,04,22,16.10
2003,09,03,04,23,15.90
2003,09,03,04,24,15.90
2003,09,03,04,25,15.90
2003,09,03,04,26,15.90
2003,09,03,04,27,15.90
2003,09,03,04,28,15.90
2003,09,03,04,29,15.90
2003,09,03,04,30,15.90
2003,09,03,04,31,15.90
2003,09,03,04,32,15.90
2003,09,03,04,33,15.90
2003,09,03,04,34,15.80
2003,09,03,04,35,15.80
2003,09,03,04,36,15.80
2003,09,03,04,37,15.80
2003,09,03,04,38,15.80
2003,09,03,04,39,15.80
2003,09,03,04,40,15.80
2003,09,03,04,41,15.80
2003,09,03,04,42,15.70
2003,09,03,04,43,15.70
2003,09,03,04,44,15.70
2003,09,03,04,45,15.60
2003,09,03,04,46,15.60
2003,09,03,04,47,15.60
2003,09,03,04,48,15.60
2003,09,03,04,49,15.60
2003,09,03,04,50,15.60
2003,09,03,04,51,15.60
2003,09,03,04,52,15.50
2003,09,03,04,53,15.50
2003,09,03,04,54,15.50
2003,09,03,04,55,15.40
2003,09,03,04,56,15.30
2003,09,03,04,57,15.30
2003,09,03,04,58,15.30
2003,09,03,04,59,15.30
2003,09,03,05,00,15.30
2003,09,03,05,01,15.30
2003,09,03,05,02,15.30
2003,09,03,05,03,15.30
2003,09,03,05,04,15.30
2003,09,03,05,05,15.30
2003,09,03,05,06,15.40
2003,09,03,05,07,15.40
2003,09,03,05,08,15.40
2003,09,03,05,09,15.40
2003,09,03,05,10,15.30
2003,09,03,05,11,15.30
2003,09,03,05,12,15.30
2003,09,03,05,13,15.30
2003,09,03,05,14,15.40
2003,09,03,05,15,15.30
2003,09,03,05,16,15.30
2003,09,03,05,17,15.10
2003,09,03,05,18,15.20
2003,09,03,05,19,15.20
2003,09,03,05,20,15.30
2003,09,03,05,21,15.30
2003,09,03,05,22,15.30
2003,09,03,05,23,15.30
2003,09,03,05,24,15.20
2003,09,03,05,25,15.20
2003,09,03,05,26,15.20
2003,09,03,05,27,15.30
2003,09,03,05,28,15.30
2003,09,03,05,29,15.40
2003,09,03,05,30,15.40
2003,09,03,05,31,15.40
2003,09,03,05,32,15.30
2003,09,03,05,33,15.30
2003,09,03,05,34,15.20
2003,09,03,05,35,15.20
2003,09,03,05,36,15.30
2003,09,03,05,37,15.30
2003,09,03,05,38,15.20
2003,09,03,05,39,15.20
2003,09,03,05,40,15.10
2003,09,03,05,41,15.10
2003,09,03,05,42,15.00
2003,09,03,05,43,15.00
2003,09,03,05,44,15.00
2003,09,03,05,45,15.10
2003,09,03,05,46,15.20
2003,09,03,05,47,15.20
2003,09,03,05,48,15.20
2003,09,03,05,49,15.20
2003,09,03,05,50,15.20
2003,09,03,05,51,15.20
2003,09,03,05,52,15.10
2003,09,03,05,53,15.10
2003,09,03,05,54,15.20
2003,09,03,05,55,15.20
2003,09,03,05,56,15.10
2003,09,03,05,57,15.10
2003,09,03,05,58,15.10
2003,09,03,05,59,15.10
2003,09,03,06,00,15.10
2003,09,03,06,01,15.10
2003,09,03,06,02,15.10
2003,09,03,06,03,15.10
2003,09,03,06,04,15.00
2003,09,03,06,05,15.00
2003,09,03,06,06,15.00
2003,09,03,06,07,15.00
2003,09,03,06,08,15.00
2003,09,03,06,09,14.90
2003,09,03,06,10,14.80
2003,09,03,06,11,14.60
2003,09,03,06,12,14.50
2003,09,03,06,13,14.40
2003,09,03,06,14,14.30
2003,09,03,06,15,14.20
2003,09,03,06,16,14.20
2003,09,03,06,17,14.20
2003,09,03,06,18,14.20
2003,09,03,06,19,14.20
2003,09,03,06,20,14.20
2003,09,03,06,21,14.30
2003,09,03,06,22,14.40
2003,09,03,06,23,14.50
2003,09,03,06,24,14.50
2003,09,03,06,25,14.50
2003,09,03,06,26,14.40
2003,09,03,06,27,14.40
2003,09,03,06,28,14.30
2003,09,03,06,29,14.40
2003,09,03,06,30,14.50
2003,09,03,06,31,14.50
2003,09,03,06,32,14.50
2003,09,03,06,33,14.40
2003,09,03,06,34,14.40
2003,09,03,06,35,14.40
2003,09,03,06,36,14.50
2003,09,03,06,37,14.50
2003,09,03,06,38,14.50
2003,09,03,06,39,14.50
2003,09,03,06,40,14.50
2003,09,03,06,41,14.60
2003,09,03,06,42,14.60
2003,09,03,06,43,14.60
2003,09,03,06,44,14.60
2003,09,03,06,45,14.60
2003,09,03,06,46,14.60
2003,09,03,06,47,14.60
2003,09,03,06,48,14.60
2003,09,03,06,49,14.60
2003,09,03,06,50,14.60
2003,09,03,06,51,14.60
2003,09,03,06,52,14.60
2003,09,03,06,53,14.60
2003,09,03,06,54,14.60
2003,09,03,06,55,14.50
2003,09,03,06,56,14.50
2003,09,03,06,57,14.50
2003,09,03,06,58,14.50
2003,09,03,06,59,14.50
2003,09,03,07,00,14.50
2003,09,03,07,01,14.50
2003,09,03,07,02,14.50
2003,09,03,07,03,14.60
2003,09,03,07,04,14.60
2003,09,03,07,05,14.70
2003,09,03,07,06,14.70
2003,09,03,07,07,14.80
2003,09,03,07,08,14.80
2003,09,03,07,09,14.80
2003,09,03,07,10,14.90
2003,09,03,07,11,14.90
2003,09,03,07,12,15.00
2003,09,03,07,13,15.10
2003,09,03,07,14,15.10
2003,09,03,07,15,15.20
2003,09,03,07,16,15.30
2003,09,03,07,17,15.40
2003,09,03,07,18,15.50
2003,09,03,07,19,15.60
2003,09,03,07,20,15.70
2003,09,03,07,21,15.70
2003,09,03,07,22,15.80
2003,09,03,07,23,15.80
2003,09,03,07,24,15.80
2003,09,03,07,25,15.80
2003,09,03,07,26,15.80
2003,09,03,07,27,15.80
2003,09,03,07,28,15.90
2003,09,03,07,29,16.00
2003,09,03,07,30,16.10
2003,09,03,07,31,16.10
2003,09,03,07,32,16.10
2003,09,03,07,33,16.20
2003,09,03,07,34,16.30
2003,09,03,07,35,16.50
2003,09,03,07,36,16.60
2003,09,03,07,37,16.70
2003,09,03,07,38,16.80
2003,09,03,07,39,16.80
2003,09,03,07,40,16.80
2003,09,03,07,41,16.80
2003,09,03,07,42,16.90
2003,09,03,07,43,16.90
2003,09,03,07,44,17.00
2003,09,03,07,45,17.10
2003,09,03,07,46,17.20
2003,09,03,07,47,17.30
2003,09,03,07,48,17.30
2003,09,03,07,49,17.50
2003,09,03,07,50,17.50
2003,09,03,07,51,17.70
2003,09,03,07,52,17.80
2003,09,03,07,53,17.80
2003,09,03,07,54,17.90
2003,09,03,07,55,17.90
2003,09,03,07,56,17.90
2003,09,03,07,57,17.90
2003,09,03,07,58,17.90
2003,09,03,07,59,17.90
2003,09,03,08,00,18.00
2003,09,03,08,01,18.10
2003,09,03,08,02,18.20
2003,09,03,08,03,18.20
2003,09,03,08,04,18.20
2003,09,03,08,05,18.20
2003,09,03,08,06,18.20
2003,09,03,08,07,18.20
2003,09,03,08,08,18.20
2003,09,03,08,09,18.20
2003,09,03,08,10,18.20
2003,09,03,08,11,18.20
2003,09,03,08,12,18.30
2003,09,03,08,13,18.40
2003,09,03,08,14,18.50
2003,09,03,08,15,18.60
2003,09,03,08,16,18.70
2003,09,03,08,17,18.90
2003,09,03,08,18,18.90
2003,09,03,08,19,18.90
2003,09,03,08,20,19.10
2003,09,03,08,21,19.10
2003,09,03,08,22,19.10
2003,09,03,08,23,19.10
2003,09,03,08,24,19.10
2003,09,03,08,25,19.20
2003,09,03,08,26,19.40
2003,09,03,08,27,19.50
2003,09,03,08,28,19.60
2003,09,03,08,29,19.50
2003,09,03,08,30,19.50
2003,09,03,08,31,19.50
2003,09,03,08,32,19.50
2003,09,03,08,33,19.40
2003,09,03,08,34,19.40
2003,09,03,08,35,19.40
2003,09,03,08,36,19.30
2003,09,03,08,37,19.20
2003,09,03,08,38,19.20
2003,09,03,08,39,19.10
2003,09,03,08,40,19.10
2003,09,03,08,41,19.00
2003,09,03,08,42,18.90
2003,09,03,08,43,19.00
2003,09,03,08,44,19.10
2003,09,03,08,45,19.10
2003,09,03,08,46,19.10
2003,09,03,08,47,19.10
2003,09,03,08,48,19.20
2003,09,03,08,49,19.20
2003,09,03,08,50,19.30
2003,09,03,08,51,19.40
2003,09,03,08,52,19.50
2003,09,03,08,53,19.60
2003,09,03,08,54,19.80
2003,09,03,08,55,19.90
2003,09,03,08,56,20.10
2003,09,03,08,57,20.20
2003,09,03,08,58,20.20
2003,09,03,08,59,20.30
2003,09,03,09,00,20.30
2003,09,03,09,01,20.30
2003,09,03,09,02,20.30
2003,09,03,09,03,20.20
2003,09,03,09,04,20.30
2003,09,03,09,05,20.30
2003,09,03,09,06,20.30
2003,09,03,09,07,20.30
2003,09,03,09,08,20.40
2003,09,03,09,09,20.40
2003,09,03,09,10,20.40
2003,09,03,09,11,20.40
2003,09,03,09,12,20.50
2003,09,03,09,13,20.60
2003,09,03,09,14,20.70
2003,09,03,09,15,20.70
2003,09,03,09,16,20.70
2003,09,03,09,17,20.70
2003,09,03,09,18,20.70
2003,09,03,09,19,20.80
2003,09,03,09,20,20.80
2003,09,03,09,21,20.90
2003,09,03,09,22,20.80
2003,09,03,09,23,20.80
2003,09,03,09,24,20.80
2003,09,03,09,25,20.80
2003,09,03,09,26,20.80
2003,09,03,09,27,20.90
2003,09,03,09,28,20.90
2003,09,03,09,29,21.00
2003,09,03,09,30,21.10
2003,09,03,09,31,21.20
2003,09,03,09,32,21.10
2003,09,03,09,33,21.10
2003,09,03,09,34,21.10
2003,09,03,09,35,21.10
2003,09,03,09,36,21.10
2003,09,03,09,37,21.20
2003,09,03,09,38,21.20
2003,09,03,09,39,21.20
2003,09,03,09,40,21.30
2003,09,03,09,41,21.30
2003,09,03,09,42,21.30
2003,09,03,09,43,21.40
2003,09,03,09,44,21.40
2003,09,03,09,45,21.50
2003,09,03,09,46,21.50
2003,09,03,09,47,21.60
2003,09,03,09,48,21.50
2003,09,03,09,49,21.40
2003,09,03,09,50,21.40
2003,09,03,09,51,21.30
2003,09,03,09,52,21.20
2003,09,03,09,53,21.20
2003,09,03,09,54,21.20
2003,09,03,09,55,21.30
2003,09,03,09,56,21.30
2003,09,03,09,57,21.30
2003,09,03,09,58,21.30
2003,09,03,09,59,21.30
2003,09,03,10,00,21.30
2003,09,03,10,01,21.30
2003,09,03,10,02,21.30
2003,09,03,10,03,21.40
2003,09,03,10,04,21.50
2003,09,03,10,05,21.60
2003,09,03,10,06,21.60
2003,09,03,10,07,21.70
2003,09,03,10,08,21.70
2003,09,03,10,09,21.70
2003,09,03,10,10,21.60
2003,09,03,10,11,21.60
2003,09,03,10,12,21.60
2003,09,03,10,13,21.60
2003,09,03,10,14,21.60
2003,09,03,10,15,21.70
2003,09,03,10,16,21.60
2003,09,03,10,17,21.60
2003,09,03,10,18,21.60
2003,09,03,10,19,21.60
2003,09,03,10,20,21.60
2003,09,03,10,21,21.60
2003,09,03,10,22,21.60
2003,09,03,10,23,21.50
2003,09,03,10,24,21.40
2003,09,03,10,25,21.40
2003,09,03,10,26,21.30
2003,09,03,10,27,21.30
2003,09,03,10,28,21.30
2003,09,03,10,29,21.30
2003,09,03,10,30,21.30
2003,09,03,10,31,21.30
2003,09,03,10,32,21.40
2003,09,03,10,33,21.50
2003,09,03,10,34,21.50
2003,09,03,10,35,21.40
2003,09,03,10,36,21.40
2003,09,03,10,37,21.40
2003,09,03,10,38,21.40
2003,09,03,10,39,21.40
2003,09,03,10,40,21.40
2003,09,03,10,41,21.40
2003,09,03,10,42,21.40
2003,09,03,10,43,21.40
2003,09,03,10,44,21.50
2003,09,03,10,45,21.60
2003,09,03,10,46,21.60
2003,09,03,10,47,21.50
2003,09,03,10,48,21.50
2003,09,03,10,49,21.60
2003,09,03,10,50,21.60
2003,09,03,10,51,21.60
2003,09,03,10,52,21.70
2003,09,03,10,53,21.90
2003,09,03,10,54,21.90
2003,09,03,10,55,22.00
2003,09,03,10,56,22.00
2003,09,03,10,57,22.00
2003,09,03,10,58,22.00
2003,09,03,10,59,21.90
2003,09,03,11,00,21.80
2003,09,03,11,01,21.80
2003,09,03,11,02,21.80
2003,09,03,11,03,21.80
2003,09,03,11,04,21.80
2003,09,03,11,05,21.90
2003,09,03,11,06,21.90
2003,09,03,11,07,22.00
2003,09,03,11,08,22.10
2003,09,03,11,09,22.10
2003,09,03,11,10,22.00
2003,09,03,11,11,22.00
2003,09,03,11,12,22.00
2003,09,03,11,13,21.90
2003,09,03,11,14,21.90
2003,09,03,11,15,21.90
2003,09,03,11,16,22.00
2003,09,03,11,17,22.00
2003,09,03,11,18,22.10
2003,09,03,11,19,22.20
2003,09,03,11,20,22.30
2003,09,03,11,21,22.30
2003,09,03,11,22,22.30
2003,09,03,11,23,22.40
2003,09,03,11,24,22.60
2003,09,03,11,25,22.70
2003,09,03,11,26,22.80
2003,09,03,11,27,22.90
2003,09,03,11,28,22.90
2003,09,03,11,29,23.00
2003,09,03,11,30,23.10
2003,09,03,11,31,23.00
2003,09,03,11,32,22.90
2003,09,03,11,33,22.90
2003,09,03,11,34,23.00
2003,09,03,11,35,23.00
2003,09,03,11,36,23.10
2003,09,03,11,37,23.10
2003,09,03,11,38,23.10
2003,09,03,11,39,23.10
2003,09,03,11,40,23.20
2003,09,03,11,41,23.20
2003,09,03,11,42,23.00
2003,09,03,11,43,23.00
2003,09,03,11,44,22.90
2003,09,03,11,45,22.90
2003,09,03,11,46,22.90
2003,09,03,11,47,22.90
2003,09,03,11,48,22.90
2003,09,03,11,49,22.90
2003,09,03,11,50,22.90
2003,09,03,11,51,23.00
2003,09,03,11,52,23.10
2003,09,03,11,53,23.10
2003,09,03,11,54,23.20
2003,09,03,11,55,23.20
2003,09,03,11,56,23.30
2003,09,03,11,57,23.30
2003,09,03,11,58,23.20
2003,09,03,11,59,23.20
2003,09,03,12,00,23.30
2003,09,03,12,01,23.30
2003,09,03,12,02,23.20
2003,09,03,12,03,23.20
2003,09,03,12,04,23.30
2003,09,03,12,05,23.30
2003,09,03,12,06,23.40
2003,09,03,12,07,23.30
2003,09,03,12,08,23.30
2003,09,03,12,09,23.40
2003,09,03,12,10,23.30
2003,09,03,12,11,23.40
2003,09,03,12,12,23.50
2003,09,03,12,13,23.60
2003,09,03,12,14,23.60
2003,09,03,12,15,23.60
2003,09,03,12,16,23.50
2003,09,03,12,17,23.40
2003,09,03,12,18,23.40
2003,09,03,12,19,23.30
2003,09,03,12,20,23.30
2003,09,03,12,21,23.40
2003,09,03,12,22,23.50
2003,09,03,12,23,23.60
2003,09,03,12,24,23.70
2003,09,03,12,25,23.70
2003,09,03,12,26,23.70
2003,09,03,12,27,23.70
2003,09,03,12,28,23.70
2003,09,03,12,29,23.70
2003,09,03,12,30,23.70
2003,09,03,12,31,23.70
2003,09,03,12,32,23.60
2003,09,03,12,33,23.60
2003,09,03,12,34,23.60
2003,09,03,12,35,23.60
2003,09,03,12,36,23.50
2003,09,03,12,37,23.50
2003,09,03,12,38,23.50
2003,09,03,12,39,23.60
2003,09,03,12,40,23.60
2003,09,03,12,41,23.60
2003,09,03,12,42,23.70
2003,09,03,12,43,23.80
2003,09,03,12,44,23.80
2003,09,03,12,45,23.90
2003,09,03,12,46,24.10
2003,09,03,12,47,24.10
2003,09,03,12,48,23.90
2003,09,03,12,49,23.60
2003,09,03,12,50,23.50
2003,09,03,12,51,23.40
2003,09,03,12,52,23.30
2003,09,03,12,53,23.30
2003,09,03,12,54,23.20
2003,09,03,12,55,23.20
2003,09,03,12,56,23.40
2003,09,03,12,57,23.50
2003,09,03,12,58,23.60
2003,09,03,12,59,23.50
2003,09,03,13,00,23.50
2003,09,03,13,01,23.50
2003,09,03,13,02,23.60
2003,09,03,13,03,23.70
2003,09,03,13,04,23.70
2003,09,03,13,05,23.60
2003,09,03,13,06,23.60
2003,09,03,13,07,23.60
2003,09,03,13,08,23.60
2003,09,03,13,09,23.60
2003,09,03,13,10,23.70
2003,09,03,13,11,23.90
2003,09,03,13,12,24.00
2003,09,03,13,13,24.10
2003,09,03,13,14,24.10
2003,09,03,13,15,24.20
2003,09,03,13,16,24.20
2003,09,03,13,17,24.20
2003,09,03,13,18,24.30
2003,09,03,13,19,24.40
2003,09,03,13,20,24.40
2003,09,03,13,21,24.40
2003,09,03,13,22,24.30
2003,09,03,13,23,24.30
2003,09,03,13,24,24.30
2003,09,03,13,25,24.20
2003,09,03,13,26,24.20
2003,09,03,13,27,24.30
2003,09,03,13,28,24.50
2003,09,03,13,29,24.60
2003,09,03,13,30,24.80
2003,09,03,13,31,25.00
2003,09,03,13,32,25.10
2003,09,03,13,33,25.20
2003,09,03,13,34,25.30
2003,09,03,13,35,25.40
2003,09,03,13,36,25.40
2003,09,03,13,37,25.50
2003,09,03,13,38,25.60
2003,09,03,13,39,25.60
2003,09,03,13,40,25.70
2003,09,03,13,41,25.70
2003,09,03,13,42,25.80
2003,09,03,13,43,25.90
2003,09,03,13,44,25.90
2003,09,03,13,45,25.90
2003,09,03,13,46,25.80
2003,09,03,13,47,25.70
2003,09,03,13,48,25.70
2003,09,03,13,49,25.70
2003,09,03,13,50,25.80
2003,09,03,13,51,25.90
2003,09,03,13,52,26.00
2003,09,03,13,53,26.10
2003,09,03,13,54,26.10
2003,09,03,13,55,26.10
2003,09,03,13,56,26.10
2003,09,03,13,57,26.10
2003,09,03,13,58,26.20
2003,09,03,13,59,26.10
2003,09,03,14,00,26.20
2003,09,03,14,01,26.30
2003,09,03,14,02,26.30
2003,09,03,14,03,26.30
2003,09,03,14,04,26.30
2003,09,03,14,05,26.30
2003,09,03,14,06,26.40
2003,09,03,14,07,26.30
2003,09,03,14,08,26.20
2003,09,03,14,09,26.00
2003,09,03,14,10,26.00
2003,09,03,14,11,26.10
2003,09,03,14,12,26.10
2003,09,03,14,13,26.10
2003,09,03,14,14,25.90
2003,09,03,14,15,25.80
2003,09,03,14,16,25.90
2003,09,03,14,17,25.90
2003,09,03,14,18,25.90
2003,09,03,14,19,25.90
2003,09,03,14,20,25.90
2003,09,03,14,21,26.00
2003,09,03,14,22,26.20
2003,09,03,14,23,26.30
2003,09,03,14,24,26.40
2003,09,03,14,25,26.40
2003,09,03,14,26,26.50
2003,09,03,14,27,26.60
2003,09,03,14,28,26.60
2003,09,03,14,29,26.60
2003,09,03,14,30,26.60
2003,09,03,14,31,26.60
2003,09,03,14,32,26.50
2003,09,03,14,33,26.40
2003,09,03,14,34,26.30
2003,09,03,14,35,26.50
2003,09,03,14,36,26.70
2003,09,03,14,37,26.90
2003,09,03,14,38,26.90
2003,09,03,14,39,26.90
2003,09,03,14,40,26.90
2003,09,03,14,41,26.80
2003,09,03,14,42,26.80
2003,09,03,14,43,26.80
2003,09,03,14,44,26.60
2003,09,03,14,45,26.60
2003,09,03,14,46,26.70
2003,09,03,14,47,26.60
2003,09,03,14,48,26.60
2003,09,03,14,49,26.60
2003,09,03,14,50,26.60
2003,09,03,14,51,26.50
2003,09,03,14,52,26.40
2003,09,03,14,53,26.30
2003,09,03,14,54,26.10
2003,09,03,14,55,25.90
2003,09,03,14,56,25.90
2003,09,03,14,57,25.80
2003,09,03,14,58,25.80
2003,09,03,14,59,25.80
2003,09,03,15,00,25.90
2003,09,03,15,01,26.00
2003,09,03,15,02,26.10
2003,09,03,15,03,26.30
2003,09,03,15,04,26.40
2003,09,03,15,05,26.30
2003,09,03,15,06,26.40
2003,09,03,15,07,26.60
2003,09,03,15,08,26.60
2003,09,03,15,09,26.60
2003,09,03,15,10,26.60
2003,09,03,15,11,26.60
2003,09,03,15,12,26.60
2003,09,03,15,13,26.70
2003,09,03,15,14,26.80
2003,09,03,15,15,26.80
2003,09,03,15,16,26.90
2003,09,03,15,17,27.00
2003,09,03,15,18,26.90
2003,09,03,15,19,26.70
2003,09,03,15,20,26.60
2003,09,03,15,21,26.50
2003,09,03,15,22,26.40
2003,09,03,15,23,26.40
2003,09,03,15,24,26.50
2003,09,03,15,25,26.50
2003,09,03,15,26,26.50
2003,09,03,15,27,26.40
2003,09,03,15,28,26.40
2003,09,03,15,29,26.30
2003,09,03,15,30,26.20
2003,09,03,15,31,26.20
2003,09,03,15,32,26.30
2003,09,03,15,33,26.30
2003,09,03,15,34,26.30
2003,09,03,15,35,26.20
2003,09,03,15,36,26.10
2003,09,03,15,37,26.30
2003,09,03,15,38,26.40
2003,09,03,15,39,26.40
2003,09,03,15,40,26.40
2003,09,03,15,41,26.40
2003,09,03,15,42,26.40
2003,09,03,15,43,26.30
2003,09,03,15,44,26.30
2003,09,03,15,45,26.30
2003,09,03,15,46,26.40
2003,09,03,15,47,26.50
2003,09,03,15,48,26.60
2003,09,03,15,49,26.60
2003,09,03,15,50,26.50
2003,09,03,15,51,26.60
2003,09,03,15,52,26.60
2003,09,03,15,53,26.60
2003,09,03,15,54,26.60
2003,09,03,15,55,26.60
2003,09,03,15,56,26.60
2003,09,03,15,57,26.60
2003,09,03,15,58,26.90
2003,09,03,15,59,27.00
2003,09,03,16,00,27.10
2003,09,03,16,01,27.00
2003,09,03,16,02,27.10
2003,09,03,16,03,27.10
2003,09,03,16,04,27.20
2003,09,03,16,05,27.30
2003,09,03,16,06,27.30
2003,09,03,16,07,27.50
2003,09,03,16,08,27.50
2003,09,03,16,09,27.70
2003,09,03,16,10,27.70
2003,09,03,16,11,27.80
2003,09,03,16,12,27.70
2003,09,03,16,13,27.60
2003,09,03,16,14,27.40
2003,09,03,16,15,27.30
2003,09,03,16,16,27.10
2003,09,03,16,17,26.90
2003,09,03,16,18,26.90
2003,09,03,16,19,26.80
2003,09,03,16,20,26.70
2003,09,03,16,21,26.60
2003,09,03,16,22,26.70
2003,09,03,16,23,26.60
2003,09,03,16,24,26.60
2003,09,03,16,25,26.60
2003,09,03,16,26,26.60
2003,09,03,16,27,26.60
2003,09,03,16,28,26.40
2003,09,03,16,29,26.20
2003,09,03,16,30,26.00
2003,09,03,16,31,25.90
2003,09,03,16,32,25.80
2003,09,03,16,33,25.80
2003,09,03,16,34,25.80
2003,09,03,16,35,25.80
2003,09,03,16,36,25.70
2003,09,03,16,37,25.70
2003,09,03,16,38,25.70
2003,09,03,16,39,25.70
2003,09,03,16,40,25.70
2003,09,03,16,41,25.60
2003,09,03,16,42,25.60
2003,09,03,16,43,25.70
2003,09,03,16,44,25.80
2003,09,03,16,45,26.00
2003,09,03,16,46,26.10
2003,09,03,16,47,26.20
2003,09,03,16,48,26.40
2003,09,03,16,49,26.40
2003,09,03,16,50,26.40
2003,09,03,16,51,26.40
2003,09,03,16,52,26.50
2003,09,03,16,53,26.60
2003,09,03,16,54,26.50
2003,09,03,16,55,26.40
2003,09,03,16,56,26.30
2003,09,03,16,57,26.30
2003,09,03,16,58,26.30
2003,09,03,16,59,26.40
2003,09,03,17,00,26.50
2003,09,03,17,01,26.60
2003,09,03,17,02,26.70
2003,09,03,17,03,26.70
2003,09,03,17,04,26.70
2003,09,03,17,05,26.60
2003,09,03,17,06,26.60
2003,09,03,17,07,26.50
2003,09,03,17,08,26.40
2003,09,03,17,09,26.20
2003,09,03,17,10,26.10
2003,09,03,17,11,26.00
2003,09,03,17,12,26.00
2003,09,03,17,13,26.00
2003,09,03,17,14,25.90
2003,09,03,17,15,26.00
2003,09,03,17,16,26.20
2003,09,03,17,17,26.30
2003,09,03,17,18,26.40
2003,09,03,17,19,26.60